Location: Haulchin
(50.3172°N, 3.4360°E)
Time: 02:54:35
(UTC+00:00)

Cosmos 2333 Rocket - Pass Details

Date: 23 May 2024
Orbit: 838 x 863 km, 70.8° (Epoch: 21 June)

Event Time Altitude Azimuth Distance (km) Brightness Sun altitude
Rises 00:45:10 0° 332° (NNW) 3,422 6.1 -17.7°
Reaches altitude 10° 00:47:54 10° 343° (NNW) 2,487 5.5 -17.6°
Maximum altitude 00:52:59 32° 45° (NE) 1,433 4.0 -17.4°
Drops below altitude 10° 00:58:05 10° 108° (ESE) 2,491 4.6 -17.1°
Sets 01:00:48 0° 118° (ESE) 3,427 5.3 -17.0°
